DELTA 1 DEB

Satellite information

Favourite Embed

Satellite Type and Status

DEBRISIN ORBIT

Key statistics

Satellite DELTA 1 DEB at a glance.

Uptime

17451

Days in orbit

Revolutions

≈ 14.2

Per day

Orbit

SSO

Sun Synchronous Orbit

Inclination

99.1

Latest

Satellite identification and parameters

Extended collection of information and parameters for DELTA 1 DEB.

Object identification

Identified? True

Debris? True

Object name: DELTA 1 DEB

International designator: 1978-026CZ

Object number (NORAD): 12256

Object ID (CCSDS): 12256

Country: UNITED STATES OF AMERICA (US)

Current information (Y/N): Y

RCS size: SMALL

Orbital parameters

Period: 101.305 minutes

Inclination: 99.0822 deg

SMA: 7198.57 km

Apoapsis: 882.084 km

Periapsis: 758.787 km

RAAN: 39.0797 deg

Eccentricy: 0.00856401

Argument of periapsis: 111.6876 deg

Mean anomaly: 249.3446 deg

Mean motion: 14.2145588 rev/day

Mean motion (dot): 0.00003163 rev/day2

B* drag term: 0.0014134376 1/REarth

Two-line elements (TLE)

Creation date: Dec. 14, 2025, 3:07 a.m.

Reference frame: TEME

Reference center: EARTH

Epoch: Dec. 13, 2025, 2:47 p.m. UTC

TLE line 0: 0 DELTA 1 DEB

TLE line 1: 1 12256U 78026CZ 25347.61628685 .00003163 00000-0 14134-2 0 9990

TLE line 2: 2 12256 99.0822 39.0797 0085640 111.6876 249.3446 14.21455880286787

Live tracking on map

Real-time ground track for satellite DELTA 1 DEB.

In-orbit conjunctions

A list of the most updated potential collisions computed for object DELTA 1 DEB.

Target Orbit TCA Probability of collision Miss distance Type
COSMOS 2251 DEB LEO 2025-09-08 18:56:03 0.0001095385 209.0 (m) DEBRIS
CZ-2D R/B SSO 2025-01-26 01:09:01 0.0003480037 26.0 (m) ROCKET BODY
FENGYUN 1C DEB SSO 2024-11-11 10:04:08 0.0006907888 316.0 (m) DEBRIS

Associated space launch

Earth observation satellite

DELTA 1 DEB was lifted into orbit during the mission ‘Delta 2910 | Landsat 3’, on board a Delta 2910 space rocket.

The launch took place on March 5, 1978, 5:54 p.m. from Space Launch Complex 2W.

For more information about the launch, click the button.

Launch to space Delta 2910 | Landsat 3
Delta 2910 | Landsat 3

Agency: N/A

Status: Launch Successful

Launch date: March 5, 1978, 5:54 p.m. UTC

Rocket: Delta 2910

Launch pad: Space Launch Complex 2W

Location: Vandenberg SFB, CA, USA

...

Latest news about this satellite

There are no fresh news available about this satellite. Check back as we update our databases every day.


Newsletter sign-up

Weekly statistics, charts and insights to help you stay on top of the space industry.